CW4591 Weather Reports


Display with metric or nautical units.
time (UTC)temp
F
wind
direction
speed
MPH
gust
MPH
rain 1hr
in
rain 24hr
in
rain mn
in
humidity
%
barometer
mb
20260510004556 53 176 5.0 9.0 0.00 0.00 0.00 46 993.8
20260510003047 54 65 1.0 12.0 0.00 0.00 0.00 47 993.8
20260510001546 54 187 3.0 11.0 0.00 0.00 0.00 48 993.9
20260510000045 54 359 2.0 11.0 0.00 0.00 0.00 49 993.9
20260509234557 52 98 3.0 10.0 0.00 0.00 0.00 52 994.1
20260509233038 52 114 7.0 12.0 0.00 0.00 0.00 53 994.2
20260509231537 52 174 2.0 10.0 0.00 0.00 0.00 52 994.2
20260509230037 52 145 4.0 11.0 0.00 0.00 0.00 52 994.4
20260509224535 52 161 4.0 10.0 0.00 0.00 0.00 51 994.2
20260509223034 52 124 4.0 14.0 0.00 0.00 0.00 53 994.4
20260509221553 51 179 6.0 12.0 0.00 0.00 0.00 52 994.4
20260509220030 51 359 6.0 16.0 0.00 0.00 0.00 53 994.5
20260509214528 50 193 5.0 14.0 0.00 0.00 0.00 53 994.5
20260509213027 50 158 4.0 10.0 0.00 0.00 0.00 54 994.5
20260509211523 49 147 5.0 12.0 0.00 0.00 0.00 56 994.6
20260509210020 48 177 6.0 14.0 0.00 0.00 0.00 56 994.6
20260509204519 48 206 8.0 14.0 0.00 0.00 0.00 56 994.7
20260509203017 47 207 6.0 9.0 0.00 0.00 0.00 59 994.7
20260509201514 47 151 4.0 11.0 0.00 0.00 0.00 60 994.7
20260509200012 46 129 2.0 9.0 0.00 0.00 0.00 63 994.8
20260509194515 46 116 0.0 8.0 0.00 0.00 0.00 65 994.8
20260509193010 45 174 2.0 8.0 0.00 0.00 0.00 66 994.8
20260509191506 45 131 2.0 9.0 0.00 0.00 0.00 67 994.8
20260509190006 45 181 2.0 7.0 0.00 0.00 0.00 67 994.8
20260509184512 44 139 0.0 6.0 0.00 0.00 0.00 67 994.8
20260509183002 44 187 2.0 5.0 0.00 0.00 0.00 68 994.7
20260509181601 43 115 0.0 5.0 0.00 0.00 0.00 69 994.7
20260509180056 42 78 2.0 5.0 0.00 0.00 0.00 73 994.8
20260509174557 42 118 1.0 5.0 0.00 0.00 0.00 73 994.9
20260509173058 42 123 0.0 3.0 0.00 0.00 0.00 74 995.0
20260509171605 41 129 0.0 2.0 0.00 0.00 0.00 75 995.1
20260509170050 41 129 0.0 4.0 0.00 0.00 0.00 77 995.2
20260509164552 41 123 1.0 3.0 0.00 0.00 0.00 76 995.1
20260509163052 41 171 0.0 3.0 0.00 0.00 0.00 78 995.3
20260509161545 40 170 0.0 3.0 0.00 0.00 0.00 79 995.3
20260509160044 40 170 0.0 0.0 0.00 0.00 0.00 81 995.2
20260509154544 39 169 0.0 2.0 0.00 0.00 0.00 82 995.2
20260509153043 39 169 0.0 3.0 0.00 0.00 0.00 84 995.4
20260509151541 38 170 0.0 1.0 0.00 0.00 0.00 84 995.3
20260509150040 38 168 1.0 3.0 0.00 0.00 0.00 84 995.3
20260509144545 38 169 1.0 4.0 0.00 0.00 0.00 83 995.5
20260509143037 37 206 0.0 0.0 0.00 0.00 0.00 84 995.4
20260509141541 37 206 0.0 0.0 0.00 0.00 0.00 84 995.6
20260509140037 37 206 0.0 3.0 0.00 0.00 0.00 84 995.7
20260509134547 37 206 0.0 3.0 0.00 0.00 0.00 83 995.7
20260509133034 37 206 0.0 1.0 0.00 0.00 0.00 82 995.8
20260509131548 37 206 0.0 3.0 0.00 0.00 0.00 80 995.9
20260509130041 37 206 1.0 4.0 0.00 0.00 0.00 79 996.0
20260509124530 37 206 0.0 0.0 0.00 0.00 0.00 78 996.1
20260509123028 38 206 0.0 3.0 0.00 0.00 0.00 76 996.1
20260509121523 38 359 0.0 0.0 0.00 0.00 0.00 75 996.1
20260509120020 39 271 0.0 2.0 0.00 0.00 0.00 74 996.2
20260509114519 39 271 1.0 4.0 0.00 0.00 0.00 72 996.1
20260509113017 39 293 2.0 7.0 0.00 0.00 0.00 70 996.3
20260509111517 39 286 1.0 6.0 0.00 0.00 0.00 67 996.2
20260509110022 39 284 2.0 8.0 0.00 0.00 0.00 68 996.2
20260509104516 39 282 0.0 5.0 0.00 0.00 0.00 68 996.2
20260509103014 39 281 2.0 5.0 0.00 0.00 0.00 67 996.3
20260509101519 39 271 2.0 5.0 0.00 0.00 0.00 67 996.4
20260509100011 38 290 0.0 3.0 0.00 0.00 0.00 72 996.5
20260509094510 38 289 2.0 4.0 0.00 0.00 0.00 68 996.5
20260509093017 39 241 0.0 1.0 0.00 0.00 0.00 71 996.6
20260509091509 39 359 0.0 0.0 0.00 0.00 0.00 67 996.6
20260509090005 39 203 3.0 7.0 0.00 0.00 0.00 68 996.6
20260509084510 38 228 0.0 2.0 0.00 0.00 0.00 69 996.8
20260509083100 38 308 3.0 7.0 0.00 0.00 0.00 68 996.9
20260509081557 37 188 1.0 2.0 0.00 0.00 0.00 71 996.9
20260509080056 37 188 0.0 0.0 0.00 0.00 0.00 69 996.9
20260509074558 37 188 0.0 0.0 0.00 0.00 0.00 70 997.0
20260509073053 38 188 0.0 0.0 0.00 0.00 0.00 68 997.0
20260509071554 38 188 0.0 0.0 0.00 0.00 0.00 66 997.0
20260509064553 40 189 0.0 0.0 0.00 0.00 0.00 64 997.1
20260509063049 41 189 0.0 0.0 0.00 0.00 0.00 62 997.2
20260509061553 42 188 0.0 0.0 0.00 0.00 0.00 62 997.3
20260509060048 43 189 0.0 0.0 0.00 0.00 0.00 60 997.3
20260509054609 45 188 0.0 0.0 0.00 0.00 0.00 57 997.4
20260509053138 46 188 0.0 0.0 0.00 0.00 0.00 55 997.5
20260509051550 46 189 0.0 0.0 0.00 0.00 0.00 50 997.6
20260509050047 47 189 0.0 0.0 0.00 0.00 0.00 50 997.7
20260509044543 48 189 0.0 0.0 0.00 0.00 0.00 48 997.8
20260509043042 49 188 0.0 2.0 0.00 0.00 0.00 44 997.8
20260509041541 49 170 0.0 3.0 0.00 0.00 0.00 42 997.9
20260509040046 49 176 4.0 6.0 0.00 0.00 0.00 41 998.0
20260509034541 50 179 3.0 8.0 0.00 0.00 0.00 40 998.2
20260509033036 50 209 0.0 9.0 0.00 0.00 0.00 43 998.3
20260509031535 50 195 2.0 8.0 0.00 0.00 0.00 38 998.4
20260509030038 51 171 2.0 11.0 0.00 0.00 0.00 37 998.6
20260509024534 52 180 3.0 8.0 0.00 0.00 0.00 34 998.7
20260509023042 51 180 2.0 6.0 0.00 0.00 0.00 36 998.8
20260509021530 52 193 2.0 5.0 0.00 0.00 0.00 36 999.0
20260509020029 51 156 1.0 7.0 0.00 0.00 0.00 36 999.1
20260509014534 52 168 0.0 8.0 0.00 0.00 0.00 36 999.2
20260509013028 52 233 1.0 8.0 0.00 0.00 0.00 37 999.4
20260509011524 52 158 3.0 8.0 0.00 0.00 0.00 34 999.6